Content
SEND FEEDBACK

Daily
Averages
Monthly
Summary
Turkey

ELAZIG, TURKEY


Home > Middle East > Turkey
Elevation: 2893 feet     Latitude: 38 36N     Longitude: 039 17E

WEATHER
 
SELECT A DAY
Number of Records: 90,382;   Date Range: 7/1/96 - 7/7/14
 
SHARE

PRINT THIS DATA

[ ← Previous Day ]
WEATHER ALMANAC - AUGUST 14, 2013
[ Next Day → ]
[ °C ]   °F
Weather ElementAverageHighLow
Temperature81.3 °F95 °F (2:50 pm)66.2 °F (5:50 am)
Dewpoint36.3 °F43 °F (9:00 am)28.4 °F (7:50 pm)
Humidity20.6 %40 % (5:50 am)9 % (9:00 pm)
Barometer29.81 in29.89 in (6:50 am)29.62 in (9:00 pm)
Wind Speed6.5 mph11.5 mph (2:50 am)
Weather ElementAverage
Visibility12 mi
Wind DirectionSSW (205.8 °)

Weather ElementTotal
Precipitation---
Cooling Degree Days15.6 (Base 65)
Growing Degree Days30.6 (Base 50)
Averaged from 26 records on August 14, 2013
WEATHER CONDITIONS BREAKOUT
WIND DIRECTION BREAKOUT
WEATHER BY HOUR - AUGUST 14, 2013
[ °C ]   °F
Local TimeTemperatureDewpointHumidityBarometerVisibilityWind DirectionWind SpeedGust SpeedPrecipitationEventsConditions
1:50 AM71.6 °F41.0 °F33 %29.86 inSW (220°)8.1 mphClear
2:50 AM73.4 °F41.0 °F31 %29.86 inSW (230°)11.5 mphClear
3:00 AM73.0 °F40.0 °F20 %29.64 in12.0 miSW (230°)11.5 mph
3:50 AM71.6 °F41.0 °F33 %29.86 inWSW (250°)6.9 mphClear
4:50 AM71.6 °F41.0 °F33 %29.86 inWSW (250°)5.8 mphClear
5:50 AM66.2 °F41.0 °F40 %29.86 inWest (270°)4.6 mphClear
6:50 AM71.6 °F41.0 °F33 %29.89 inSW (230°)4.6 mphClear
7:50 AM77.0 °F41.0 °F28 %29.89 inSSW (210°)5.8 mphClear
8:50 AM80.6 °F42.8 °F26 %29.89 inWest (270°)5.8 mphClear
9:00 AM80.0 °F43.0 °F17 %29.69 in12.0 miWest (270°)5.8 mph
9:50 AM84.2 °F42.8 °F23 %29.89 inVariable4.6 mphClear
10:50 AM86.0 °F41.0 °F20 %29.86 inWNW (290°)4.6 mphClear
11:50 AM89.6 °F41.0 °F18 %29.86 inVariable4.6 mphClear
12:50 PM91.4 °F39.2 °F16 %29.83 inVariable4.6 mphClear
1:50 PM93.2 °F35.6 °F13 %29.80 inVariable5.8 mphClear
2:50 PM95.0 °F33.8 °F12 %29.80 inNNW (340°)8.1 mphClear
3:50 PM95.0 °F30.2 °F10 %29.77 inVariable4.6 mphClear
4:50 PM95.0 °F30.2 °F10 %29.77 inNNW (330°)9.2 mphClear
5:50 PM95.0 °F32.0 °F11 %29.77 inWNW (300°)9.2 mphClear
6:50 PM91.4 °F32.0 °F12 %29.77 inWest (280°)6.9 mphClear
7:50 PM82.4 °F28.4 °F14 %29.80 inSW (230°)8.1 mphClear
8:50 PM77.0 °F28.4 °F17 %29.80 inSSW (210°)3.5 mphClear
9:00 PM77.0 °F29.0 °F9 %29.62 in12.0 miSSW (210°)3.5 mph
9:50 PM75.2 °F28.4 °F18 %29.80 inSW (230°)5.8 mphClear
10:50 PM77.0 °F28.4 °F17 %29.80 inWNW (290°)8.1 mphClear
11:50 PM71.6 °F30.2 °F22 %29.80 inSSW (210°)6.9 mphClear
Hourly data recorded from LTCA, located miles away from Elazig, Turkey







STORIES FROM OUR PARTNERS